Voltar ao catálogo

CHUANG XIN 20A

CX-20A

AtivoCiênciaLEO
NORAD 58425·PAYLOAD·🇨🇳 China

Lançado Nov 23, 2023 de Xichang Satellite Launch Center

Loading…

Próximas Passagens (próximas 24 horas)

TLE

AtualizadoSource: Space-Track

Época: Sep 14, 2026, 19:52 UTC

1 58425U 23181A   26257.82809541 -.00000098  00000-0  53709-4 0  9994
2 58425  49.9610 358.0036 0013840 180.1383 179.9493 13.41504009137785

Acompanhe CHUANG XIN 20A em tempo real com AllMySat

Download on the App Store